Regional Weather Roundup
Issued by NWS

Home | Current Version | Previous Version | Text Only | Print | Product List | Glossary Off
Versions: 1 2 3 4 5 6 7 8 9 10 11 12 13 14 15 16 17 18 19 20 21 22 23 24 25 26 27 28 29 30 31 32 33 34 35 36 37 38 39 40 41 42 43 44 45 46 47 48 49 50

000
ASUS43 KLOT 291403
RWRIL

ILLINOIS REGIONAL WEATHER ROUNDUP
NATIONAL WEATHER SERVICE CHICAGO/ROMEOVILLE IL
900 AM CDT SAT APR 29 2017

NOTE: "FAIR" INDICATES FEW OR NO CLOUDS BELOW 12,000 FEET WITH NO
SIGNIFICANT WEATHER AND/OR OBSTRUCTIONS TO VISIBILITY.

* THESE STATIONS ARE NOT UNDER NWS QUALITY CONTROL. THEY ALSO MAY NOT
  REPORT WEATHER SUCH AS PRECIPITATION OR FOG.

ILZ001-002-007-009-015-016-024-291500-
NORTHWEST ILLINOIS

CITY           SKY/WX    TMP DP  RH WIND       PRES   REMARKS
MOLINE         CLOUDY    48  37  65 NE21      30.06F
STERLING*      CLOUDY    46  34  62 NE20G26   30.12R
SAVANNA*       CLOUDY    47  37  67 NE17G23   30.12F
$$

ILZ003-004-008-010-011-017-018-291500-
NORTH CENTRAL ILLINOIS

CITY           SKY/WX    TMP DP  RH WIND       PRES   REMARKS
ROCKFORD       CLOUDY    46  32  58 NE21G26   30.17F
FREEPORT*      CLOUDY    44  35  70 NE20G26   30.18F
ROCHELLE*      CLOUDY    44  33  66 NE24G30   30.13S
DE KALB*       CLOUDY    45  33  65 NE23      30.14S
PERU*          CLOUDY    46  36  69 NE23G30   30.08F
$$

ILZ005-006-012>014-019>023-291500-
NORTHEAST ILLINOIS

CITY           SKY/WX    TMP DP  RH WIND       PRES   REMARKS
CHICAGO-OHARE  CLOUDY    45  32  60 NE21      30.16R
CHICAGO-MIDWAY CLOUDY    46  36  68 N20G29    30.14S
AURORA         CLOUDY    47  32  56 NE22G29   30.12F
LANSING*       CLOUDY    46  40  81 N15G22    30.13S
WAUKEGAN       CLOUDY    42  35  76 N16G30    30.18R
DUPAGE AIRPORT CLOUDY    46  33  60 NE17G30   30.14S
WHEELING       CLOUDY    43  36  76 NE16G29   30.19R
MORRIS*        CLOUDY    47  36  66 NE10G21   30.08F
NORTHERLY ISL    N/A     44  36  73 N21         N/A
$$

LMZ740>746-291500-
SOUTHERN LAKE MICHIGAN

STATION/POSITION SKY/WX   TEMP    WIND        PRES    VSBY  WAVE
                          AIR SEA DIR/SP/G                  HT/PER
                          (F)     (DEG/KT/KT) (MB)    (MI)  (FT/S)
SOUTHERN BUOY              41 41   20/ 19/ 21 1022.1          4/ 5
HARRISON CRIB              44      10/ 24/ 27   N/A
BURNHAM HARBOR             44     360/ 18/ 23   N/A
CALUMET HARBOR             45     360/ 17/ 23 1020.0F
BURNS HARBOR               45      20/ 20/ 24 1019.6F
MICHIGAN CITY              44      10/ 22/ 23   N/A
MICHIGAN CITY 6N           44 46                N/A           5/ 5
ST. JOSEPH                 48 48   50/ 14/ 19 1020.7R         4/ 4
$$

ILZ025>027-034>036-040-047-049-050-058-095>099-291500-
WEST-CENTRAL ILLINOIS

CITY           SKY/WX    TMP DP  RH WIND       PRES   REMARKS
QUINCY         CLOUDY    51  48  89 NE15      29.97R FOG
GALESBURG*     CLOUDY    46  43  88 NE21G32   29.99F
MACOMB*        PTSUNNY   48  45  88 NE20G39   30.00F
JACKSONVILLE*  CLOUDY    49  47  92 NE23G30   29.96R
PITTSFIELD*    RAIN      50  48  94 E12G22    29.98R
$$

ILZ028>032-037-038-041>044-048-051>054-059>061-291500-
CENTRAL ILLINOIS

CITY           SKY/WX    TMP DP  RH WIND       PRES   REMARKS
PONTIAC        DRIZZLE   47  44  88 NE21      30.06F
DECATUR        CLOUDY    49  49 100 E26G35    29.87F
PEORIA         CLOUDY    48  42  80 NE23G33   29.97F
SPRINGFIELD    CLOUDY    50  47  89 NE23G32   29.92R
TAYLORVILLE    CLOUDY    50  49  97 E15G28    29.92R FOG
$$

ILZ033-039-045-046-055>057-062-063-291500-
EAST-CENTRAL ILLINOIS

CITY           SKY/WX    TMP DP  RH WIND       PRES   REMARKS
CHAMPAIGN      LGT RAIN  49  46  90 NE28G33   29.92F FOG
RANTOUL*       LGT RAIN  49  48  94 NE18      30.01F
MATTOON        LGT RAIN  51  50  96 NE22G28   29.94F FOG
PARIS*         RAIN      53  53  99 NE8       30.06R
$$

ILZ079-100>102-291500-
SOUTHWEST ILLINOIS

CITY           SKY/WX    TMP DP  RH WIND       PRES   REMARKS
ALTON          TSTM      55  55 100 SE14      29.93R FOG
BELLEVILLE     TSTM      58  58 100 E10       29.94R FOG
CAHOKIA*       LGT RAIN  59  57  93 SE12      29.94R
$$

ILZ064>066-069>071-074>076-080>082-084>086-088>090-092>094-291500-
SOUTH-CENTRAL ILLINOIS

CITY           SKY/WX    TMP DP  RH WIND       PRES   REMARKS
CARBONDALE     LGT RAIN  64  64 100 SE12G22   29.95R
CAIRO*         DRIZZLE   67  65  94 NE6       29.95R
EFFINGHAM*     TSTM      58  58 100 E10G17    29.98R
MARION         LGT RAIN  66  64  94 E12       29.98R
MT. VERNON     TSTM      63  63 100 SE12      29.97R FOG
CENTRALIA*     RAIN      62  62 100 E7        29.95S
SALEM*         TSTM      60  59  94 E8        29.95F
$$

ILZ067-068-072-073-078-083-087-091-291500-
SOUTHEAST ILLINOIS

CITY           SKY/WX    TMP DP  RH WIND       PRES   REMARKS
LAWRENCEVILLE  RAIN      61  61 100 E7        30.02R FOG
FLORA*         TSTM      61  60  97 NE10      29.97F
FAIRFIELD*     CLOUDY    64  64 100 E8        29.96S
HARRISBURG*    LGT RAIN  64  64  99 E13       29.99R
ROBINSON*      RAIN      58  58 100 SE7       30.04R
CARMI*         LGT RAIN  64  64  99 SE21      29.99S
$$

ABBREVIATIONS USED IN REMARKS
   TC - TEMPERATURE IN CELSIUS
  WCI - WIND CHILL INDEX
   HX - HEAT INDEX
  VSB - VISIBILITY
$$





USA.gov is the U.S. government's official web portal to all federal, state and local government web resources and services.